DW4707 Campi Bisenzio - Firenze IT current weather conditions

sailwx.info

Wind from 019 at 0 knots gusting 2

Air temperature 28.9° C
Dewpoint 18.0° C

Last reported at 2014-Jul-23 10:47 UTC.
Time now 2014-Jul-23 11:28 UTC

Location: N 43°50' E 011°08'.
View on Google Maps.

See reports from other nearby stations

  
Tides and Currents Weather Stations Pressure Air Temp Water Temp Dewpoint Dewpoint Depression Visibility Wind Speed Wind Dir Waves Ship Positions
date/time (UTC)wind fromknots sea level pressurealtimeterstation pressurevisibilityair tempwater tempwave heightnotes
2014-Jul-23 10:47 019 0 gusting 2 28.9
2014-Jul-23 10:37 022 1 gusting 1 28.3
2014-Jul-23 10:27 045 1 gusting 1 28.3
2014-Jul-23 10:17 023 0 gusting 1 28.3
2014-Jul-23 10:07 022 28.3
2014-Jul-23 09:57 011 0 gusting 0 28.9
2014-Jul-23 09:47 029 0 gusting 1 28.3
2014-Jul-23 09:37 038 2 gusting 2 28.3
2014-Jul-23 09:27 28.3
2014-Jul-23 09:17 025 0 gusting 2 28.9
2014-Jul-23 09:07 045 1 gusting 2 29.4
2014-Jul-23 08:27 112 29.4
2014-Jul-23 08:17 022 28.9
2014-Jul-23 07:57 022 28.3
2014-Jul-23 07:47 118 27.8
2014-Jul-23 07:37 045 27.8
2014-Jul-23 07:27 202 27.8
2014-Jul-23 07:17 045 26.1
2014-Jul-23 07:07 022 0 gusting 0 25.6
2014-Jul-23 06:57 044 25.6
2014-Jul-23 06:47 090 25.6
2014-Jul-23 06:27 045 25.0
2014-Jul-23 06:17 102 24.4
2014-Jul-23 06:07 068 24.4
2014-Jul-23 05:57 045 23.3
2014-Jul-23 05:47 108 22.2
2014-Jul-23 05:37 225 22.2
2014-Jul-23 05:27 022 22.2
2014-Jul-23 05:07 022 22.2
2014-Jul-23 04:57 112 21.7
2014-Jul-23 04:47 180 21.7
2014-Jul-23 04:37 045 21.7
2014-Jul-23 04:27 155 21.7
2014-Jul-23 04:17 167 21.7
2014-Jul-23 04:07 045 21.7
2014-Jul-23 03:57 158 21.7
2014-Jul-23 03:47 118 21.7
2014-Jul-23 03:37 292 21.7
2014-Jul-23 03:17 158 21.7
2014-Jul-23 03:07 158 21.7
2014-Jul-23 02:57 093 21.7
2014-Jul-23 02:37 187 21.7
2014-Jul-23 02:27 180 21.7
2014-Jul-23 02:17 210 21.7
2014-Jul-23 01:57 068 21.7
2014-Jul-23 01:47 292 21.7
2014-Jul-23 01:37 202 21.7
2014-Jul-23 01:07 202 21.7
2014-Jul-23 00:57 225 21.7
2014-Jul-23 00:47 116 21.7
2014-Jul-23 00:37 068 21.7
2014-Jul-23 00:27 22.2
2014-Jul-23 00:17 022 22.2
2014-Jul-23 00:07 022 22.2
2014-Jul-22 23:37 158 22.2
2014-Jul-22 23:27 090 22.8
2014-Jul-22 23:17 068 22.8
2014-Jul-22 23:07 180 22.8
2014-Jul-22 22:57 112 22.8
2014-Jul-22 22:37 201 23.3
2014-Jul-22 22:27 292 23.3
2014-Jul-22 22:17 351 23.3
2014-Jul-22 22:07 012 23.9
2014-Jul-22 21:57 022 23.9
2014-Jul-22 21:47 127 23.9
2014-Jul-22 21:37 032 23.9
2014-Jul-22 21:27 158 24.4
2014-Jul-22 21:17 194 24.4
2014-Jul-22 21:07 270 24.4
2014-Jul-22 20:57 045 24.4
2014-Jul-22 20:47 022 25.0
2014-Jul-22 20:37 022 25.0
2014-Jul-22 20:17 045 25.0
2014-Jul-22 20:07 338 25.0
2014-Jul-22 19:57 045 25.6
2014-Jul-22 19:47 045 25.6
2014-Jul-22 19:37 045 25.6
2014-Jul-22 19:27 045 26.1
2014-Jul-22 19:17 045 26.1
2014-Jul-22 19:07 216 26.1
2014-Jul-22 18:57 112 26.1
2014-Jul-22 18:37 254 26.7
2014-Jul-22 18:27 112 26.7
2014-Jul-22 18:17 135 26.7
2014-Jul-22 17:57 292 26.7
2014-Jul-22 17:37 022 27.2
2014-Jul-22 17:27 022 27.2
2014-Jul-22 17:17 022 27.8
2014-Jul-22 17:07 034 27.8
2014-Jul-22 16:57 28.3
2014-Jul-22 16:47 035 28.3
2014-Jul-22 16:37 022 28.3
2014-Jul-22 16:27 28.3
2014-Jul-22 16:07 013 28.3
2014-Jul-22 15:57 022 28.9
2014-Jul-22 15:47 022 28.9
2014-Jul-22 15:37 28.9
2014-Jul-22 15:17 045 28.3
2014-Jul-22 15:07 038 0 gusting 0 28.3
2014-Jul-22 14:57 022 28.3
2014-Jul-22 14:47 28.3
2014-Jul-22 14:27 338 0 gusting 2 28.3
2014-Jul-22 14:17 068 0 gusting 2 28.9
2014-Jul-22 14:07 055 1 gusting 2 28.9
2014-Jul-22 13:57 022 1 gusting 1 28.3
2014-Jul-22 13:47 225 28.9
2014-Jul-22 13:27 112 28.9
2014-Jul-22 13:17 022 0 gusting 0 28.9
2014-Jul-22 13:07 088 28.9
2014-Jul-22 12:57 068 0 gusting 2 28.9
2014-Jul-22 12:47 28.3
2014-Jul-22 12:37 062 0 gusting 0 28.9
2014-Jul-22 12:27 338 29.4
2014-Jul-22 12:17 28.9
2014-Jul-22 12:07 033 29.4
2014-Jul-22 11:57 045 29.4
2014-Jul-22 11:47 045 29.4
2014-Jul-22 11:37 011 28.9
2014-Jul-22 11:27 112 29.4
2014-Jul-22 11:17 28.3
2014-Jul-22 11:07 084 0 gusting 0 27.8
2014-Jul-22 10:57 049 28.3
2014-Jul-22 10:47 045 0 gusting 0 28.3
2014-Jul-22 10:37 051 28.3
2014-Jul-22 10:27 091 28.3
2014-Jul-22 10:17 045 27.8
2014-Jul-22 10:07 180 27.2
2014-Jul-22 09:57 024 0 gusting 0 28.3
2014-Jul-22 09:47 022 28.3
2014-Jul-22 09:37 022 27.8
2014-Jul-22 09:07 042 0 gusting 0 27.2
2014-Jul-22 08:57 045 26.7
2014-Jul-22 08:47 068 0 gusting 1 26.7
2014-Jul-22 08:37 001 1 gusting 2 26.1
2014-Jul-22 08:27 017 26.1
2014-Jul-22 08:07 011 26.1
2014-Jul-22 07:57 248 26.1
2014-Jul-22 07:47 225 25.6
2014-Jul-22 07:37 022 25.6
2014-Jul-22 07:27 315 25.6
2014-Jul-22 07:17 158 24.4
2014-Jul-22 07:07 178 24.4
2014-Jul-22 06:57 058 23.9
2014-Jul-22 06:47 022 23.9
2014-Jul-22 06:37 079 22.8
2014-Jul-22 06:27 016 21.1
2014-Jul-22 06:17 158 19.4
2014-Jul-22 06:07 300 19.4
2014-Jul-22 05:57 18.9
2014-Jul-22 05:47 045 18.3
2014-Jul-22 05:37 147 18.3
2014-Jul-22 05:27 180 18.3
2014-Jul-22 05:17 022 18.3
2014-Jul-22 05:07 020 18.3
2014-Jul-22 04:57 18.3
2014-Jul-22 04:47 18.3
2014-Jul-22 04:37 18.3
2014-Jul-22 04:27 18.3
2014-Jul-22 04:17 022 18.3
2014-Jul-22 04:07 18.3
2014-Jul-22 03:57 178 17.8
2014-Jul-22 03:47 112 17.8
2014-Jul-22 03:37 008 18.3
2014-Jul-22 03:27 277 18.3
2014-Jul-22 03:17 180 18.3
2014-Jul-22 03:07 022 18.3
2014-Jul-22 02:57 107 18.3
2014-Jul-22 02:47 158 18.3
2014-Jul-22 02:37 156 18.3
2014-Jul-22 02:27 297 18.3
2014-Jul-22 02:17 158 18.3
2014-Jul-22 01:57 188 18.9
2014-Jul-22 01:47 248 18.9
2014-Jul-22 01:37 327 18.9
2014-Jul-22 01:27 180 19.4
2014-Jul-22 01:17 135 19.4
2014-Jul-22 01:07 022 19.4
2014-Jul-22 00:57 19.4
2014-Jul-22 00:47 20.0
2014-Jul-22 00:37 135 20.0
2014-Jul-22 00:27 288 20.0
2014-Jul-22 00:17 20.0
2014-Jul-21 23:57 068 20.0
2014-Jul-21 23:47 022 20.0
2014-Jul-21 23:37 022 20.0
2014-Jul-21 23:27 20.0
2014-Jul-21 23:17 068 20.0
2014-Jul-21 23:07 180 20.0
2014-Jul-21 22:57 292 20.0
2014-Jul-21 22:37 185 20.0
2014-Jul-21 22:27 022 20.0
2014-Jul-21 22:17 022 20.0
2014-Jul-21 21:57 20.6
2014-Jul-21 21:47 022 20.6
2014-Jul-21 21:37 022 20.6
2014-Jul-21 21:27 022 20.6
2014-Jul-21 21:17 022 20.6
2014-Jul-21 20:57 008 20.6
2014-Jul-21 20:47 180 20.6
2014-Jul-21 20:37 180 20.6
2014-Jul-21 20:27 183 20.6
2014-Jul-21 20:17 248 20.6
2014-Jul-21 20:07 202 21.1
2014-Jul-21 19:57 225 21.1
2014-Jul-21 19:47 270 21.1
2014-Jul-21 19:37 270 21.7
2014-Jul-21 19:27 015 21.7
2014-Jul-21 19:17 225 21.7
2014-Jul-21 19:07 135 21.7
2014-Jul-21 18:57 300 21.7
2014-Jul-21 18:47 248 21.7
2014-Jul-21 18:37 158 22.2
2014-Jul-21 18:27 185 22.2
2014-Jul-21 18:17 180 22.8
2014-Jul-21 18:07 023 22.8
2014-Jul-21 17:57 074 22.8
2014-Jul-21 17:47 225 23.3
2014-Jul-21 17:37 135 22.8
2014-Jul-21 17:27 146 23.3
2014-Jul-21 17:17 23.3
2014-Jul-21 17:07 292 23.3
2014-Jul-21 16:57 225 23.3
2014-Jul-21 16:47 202 23.3
2014-Jul-21 16:37 225 23.3
2014-Jul-21 16:17 177 23.3
2014-Jul-21 16:07 180 23.3
2014-Jul-21 15:57 057 23.3
2014-Jul-21 15:47 158 23.3
2014-Jul-21 15:37 068 23.3
2014-Jul-21 15:27 059 23.3
2014-Jul-21 15:17 068 23.3
2014-Jul-21 15:07 23.3
2014-Jul-21 14:57 281 23.3
2014-Jul-21 14:47 068 23.3
2014-Jul-21 14:37 22.8
2014-Jul-21 14:27 158 22.8
2014-Jul-21 14:17 022 22.8
2014-Jul-21 14:07 022 22.8
2014-Jul-21 13:57 027 22.2
2014-Jul-21 13:47 068 22.2
2014-Jul-21 13:37 338 22.2
2014-Jul-21 13:27 122 21.7
2014-Jul-21 13:07 292 21.1
2014-Jul-21 12:57 21.1
2014-Jul-21 12:47 068 21.1
2014-Jul-21 12:37 045 20.6
2014-Jul-21 12:27 022 20.6
2014-Jul-21 12:17 158 20.6
2014-Jul-21 12:07 180 20.0
2014-Jul-21 11:57 037 20.0
2014-Jul-21 11:47 20.0
2014-Jul-21 11:37 292 19.4
2014-Jul-21 11:27 010 20.0
2014-Jul-21 11:07 19.4